Regional Weather Roundup
Issued by NWS

Home | Current Version | Previous Version | Text Only | Print | Product List | Glossary On
Versions: 1 2 3 4 5 6 7 8 9 10 11 12 13 14 15 16 17 18 19 20 21 22 23 24 25 26 27 28 29 30 31 32 33 34 35 36 37 38 39 40 41 42 43 44 45 46 47 48 49 50
000
ASUS46 KLOX 060113
RWRCA

SOUTHERN CALIFORNIA WEATHER ROUNDUP
NATIONAL WEATHER SERVICE OXNARD CALIFORNIA
600 PM PDT THU MAY 05 2016

NOTE: "FAIR" INDICATES FEW OR NO CLOUDS BELOW 12,000 FEET WITH NO
SIGNIFICANT WEATHER AND/OR OBSTRUCTIONS TO VISIBILITY.

  -  STATIONS PRECEEDED BY AN ASTERISK (*) ARE NOT NWS OR FAA
     STATIONS AND ARE NOT SUBJECT TO NWS AND FAA QUALITY CONTROL.

CAZ041-042-087-060200-
LA AND ORANGE COUNTY COASTAL AREAS


CITY           SKY/WX    TMP DP  RH WIND       PRES   REMARKS
L.A. DOWNTOWN  CLOUDY    65  46  50 VRB5      29.86F
L.A. AIRPORT   PTSUNNY   64  50  60 SW10      29.87F
LONG BEACH     CLOUDY    64  51  62 S10       29.87

CITY           SKY/WX    TMP DP  RH WIND       PRES   REMARKS
FULLERTON      CLOUDY    66  48  52 S10       29.86
HAWTHORNE      CLOUDY    64  49  57 W13       29.87
*LEO CARRILLO    N/A     64  54  69 SW2         N/A
*LOS ALAMITOS  FAIR      65  52  62 SW10      29.87F
*REDONDO BEACH   N/A     65  53  65 CALM      29.87S
SANTA ANA      CLOUDY    65  48  54 SW10      29.87F
STA MONICA APT MOSUNNY   63  50  62 SW9       29.87F
*STA MON PIER    N/A     62  54  76 W9        29.81F
TORRANCE       PTSUNNY   66  52  59 S8        29.88F
*UCLA            N/A     61  46  59 SW13      29.84F

$$

CAZ547-548-048-060200-
LA COUNTY VALLEYS AND INLAND EMPIRE


CITY           SKY/WX    TMP DP  RH WIND       PRES   REMARKS
BURBANK        NOT AVBL
VAN NUYS       CLOUDY    62  47  57 SW6       29.86

CITY           SKY/WX    TMP DP  RH WIND       PRES   REMARKS
CORONA AIRPORT CLOUDY    65  47  52 W12       29.85
*CHATSWORTH      N/A     61  49  65 N6        29.87F
CHINO          PTSUNNY   65  44  46 W14       29.87F
MARCH AFB      CLOUDY    62  48  61 NW8       29.84F
*NORTHRIDGE      N/A     61  46  59 S3          N/A
ONTARIO        PTSUNNY   63  44  50 W13       29.86F
*PASADENA        N/A     61  52  72 E3          N/A
POMONA         CLOUDY    57  50  77 NW7       29.90F
RIVERSIDE      CLOUDY    65  44  46 W10       29.85S
SAN BERNARDINO PTSUNNY   66  45  45 W17       29.86F
*SAN GABRIEL     N/A     64  47  55 SW7       29.93F
*SAN RAFAEL HI   N/A     55  44  65 S7          N/A
*SAUGUS          N/A     60  47  61 S5          N/A
*WHITEMAN AP   CLOUDY    61  46  59 SE6       29.90S
*WHITTIER HILL   N/A     60  47  62 S8          N/A
*WOODLAND HILL   N/A     61  46  59 S7          N/A

$$

CAZ054-055-060200-
LA AND SAN BERNARDINO COUNTY MOUNTAINS


CITY           SKY/WX    TMP DP  RH WIND       PRES   REMARKS
*ACTON           N/A     55  44  66 SW12        N/A
*BIG BEAR AIRP PTCLDY    43  32  65 SW8       29.89F
*BIG PINES       N/A     38  35  91 NW2         N/A
*CHILAO          N/A     40  40 100 S12         N/A  WCI  33
SANDBERG       PTSUNNY   50  42  74 S16G30    29.87F
*WARM SPRINGS    N/A     47  33  59 CALM        N/A

$$

CAZ028-029-059-060-099-060200-
ANTELOPE VALLEY AND SURROUNDING AREAS


CITY           SKY/WX    TMP DP  RH WIND       PRES   REMARKS
LANCASTER      MOSUNNY   59  43  55 SW18G28   29.84S
PALMDALE       MOSUNNY   58  44  60 SW26G33   29.81S
*POPPY PARK      N/A     56  41  57 SW21G37     N/A

CITY           SKY/WX    TMP DP  RH WIND       PRES   REMARKS
29 PALMS       MOSUNNY   70  34  26 SW26      29.78S
BARSTOW/DAGGET PTSUNNY   71  38  29 SW25      29.73S
BISHOP         PTSUNNY   71  18  13 S28G36    29.66S
CHINA LAKE     MOSUNNY   72  41  32 S24G32    29.69F
EDWARDS AFB    MOSUNNY   62  43  50 SW26G36   29.77F
MOJAVE         SUNNY     61  43  51 S24G31    29.80F
NEEDLES        PTSUNNY   87  29  12 SW22G30   29.62F
VICTORVILLE    MOSUNNY   61  39  44 S28       29.80S

$$

CAZ039-040-060200-
VENTURA AND SANTA BARBARA COUNTY COAST


CITY           SKY/WX    TMP DP  RH WIND       PRES   REMARKS
CAMARILLO      CLOUDY    64  50  60 SW9       29.86F
NWS OXNARD       N/A     64  50  60 SW6       29.86S
OXNARD AIRPORT CLOUDY    63  52  67 S7        29.87F
*POINT MUGU    PTSUNNY   64  53  67 SW9       29.87F
SBA APT/GOLETA CLOUDY    63  52  67 SW6       29.87S
*SANTA BARBARA   N/A     68  52  57 N3        29.95S
*VENTURA         N/A     63  52  67 SW2       29.85S

$$

CAZ044-045-060200-
VENTURA COUNTY VALLEYS


CITY           SKY/WX    TMP DP  RH WIND       PRES   REMARKS
*SIMI VALLEY     N/A     58  50  73 SW1       29.84S
*WESTLAKE VILL   N/A     56  50  81 CALM      29.85F
*OJAI            N/A     61  50  66 CALM      29.81F
*FILLMORE        N/A     63  50  63 CALM      29.76S

$$

CAZ053-060200-
VENTURA COUNTY MOUNTAINS


CITY           SKY/WX    TMP DP  RH WIND       PRES   REMARKS
*LOCKWOOD VLY    N/A     48  37  66 S6          N/A
*ROSE VALLEY     N/A     52  48  87 MISG        N/A

$$

CAZ034-035-036-060200-
CENTRAL COAST AND SANTA YNEZ VALLEY


CITY           SKY/WX    TMP DP  RH WIND       PRES   REMARKS
SAN LUIS OBISP PTSUNNY   64  52  64 SW12      29.86F
SANTA MARIA    CLOUDY    60  54  80 W10       29.87S

CITY           SKY/WX    TMP DP  RH WIND       PRES   REMARKS
*CAL POLY SLO    N/A     63  52  67 S8          N/A
*LOMPOC        CLOUDY    63  50  62 SW8       29.86S
*PISMO BEACH     N/A     60  56  85 W3        29.87F
*SANTA YNEZ    CLOUDY    63  46  55 SW10      29.86S

$$

CAZ037-038-051-060200-
SAN LUIS OBISPO COUNTY INTERIOR AND CUYAMA VALLEY


CITY           SKY/WX    TMP DP  RH WIND       PRES   REMARKS
*CUYAMA          N/A     59  46  63 SW10      29.79R
PASO ROBLES    FAIR      62  47  57 SW13      29.84F

$$

CAZ032-033-061-060200-
SOUTHERN DESERTS


CITY           SKY/WX    TMP DP  RH WIND       PRES   REMARKS
BLYTHE         MOSUNNY   85  40  20 W21G26    29.64F
IMPERIAL       MOSUNNY   77  39  25 W25G33    29.68F
PALM SPRINGS   SUNNY     76  43  30 NW23G29   29.72F
THERMAL        SUNNY     80  38  22 NW13      29.66F

$$

ELSEWHERE ACROSS THE WESTERN UNITED STATES AND MEXICO


CITY           SKY/WX    TMP DP  RH WIND       PRES   REMARKS
DEATH VALLEY,    N/A     86  33  15 SE3G22      N/A
DENVER, CO     CLOUDY    71  40  32 SE10      30.00F
GRAND CANYON,  MOSUNNY   69  13  11 S20G28    29.95F
HONOLULU, HI   MOSUNNY   82  66  57 S8        29.99F
KAHULUI, MAUI  MOSUNNY   88  68  51 NE13      29.96F HX  91
LAKE TAHOE, CA CLOUDY    43  39  86 NE5       29.89S
LAS VEGAS, NV  CLOUDY    81  21  11 S15G26    29.62F
MAMMOTH LAKES, CLOUDY    48  30  49 NW15G21   29.83S
MEXICO CITY, M MOCLDY    79  37  22 N12       30.21R
PHOENIX, AZ    MOSUNNY   94  24   8 S20G25    29.63F
PORTLAND, OR   PTSUNNY   72  43  35 NW10      29.93S
RENO, NV       LGT RAIN  48  43  82 E12       29.90R
SALT LAKE CITY CLOUDY    82  27  13 SE21      29.76F
SAN DIEGO, CA  PTSUNNY   66  48  52 SW8       29.89F
SAN FRANCISCO, PTSUNNY   65  53  65 SW10      29.86S
SAN JOSE, CA   PTSUNNY   64  52  64 NW13G20   29.84F
SEATTLE, WA    MOSUNNY   67  48  50 N12       30.01S
TIJUANA, MEX   PTSUNNY   64  45  48 SW7       29.90F

$$

STATION/POSITION TIME  TEMP    WIND        PRES    VSBY  WAVE
                       AIR SEA DIR/SP/G                  HT/PER
                 (UTC) (F)     (DEG/KT/KT) (MB)    (MI)  (FT/S)
POINT ARGUELLO B NOT AVBL
WEST SANTA BARBA 0050   58 58  210/  4/  6 1011.1F         6/10
POINT CONCEPTION NOT AVBL
EAST SANTA BARBA 0000   60 58  100/  2/  4 1012.1F
SANTA MONICA BAY 0050   60 61  200/  6/  6 1011.6F         3/15



USA.gov is the U.S. government's official web portal to all federal, state and local government web resources and services.